User: anonymous   Login
Location: *
(40.7873°S, 98.7174°E)
Time: 05:07:09
(UTC+00:00)
Language:

Cosmos 1340 Rocket - Orbit

View from above orbital plane
View from above orbital plane
View from above satellite
View from above satellite

Ground track
Ground track

The orbit data is extracted from the following two-line orbital elements,

1 13068U 82013B   22222.84506984  .00001895  00000-0  11945-3 0  9992
2 13068  81.2009 233.7454 0021032 228.6181 131.3236 15.08515921206569
Epoch (UTC): 10 August 2022 20:16:54
Eccentricity: 0.0021032
inclination: 81.2009°
perigee height: 526 km
apogee height: 555 km
right ascension of ascending node: 233.7454°
argument of perigee: 228.6181°
revolutions per day: 15.08515921
mean anomaly at epoch: 131.3236°
orbit number at epoch: 20656

The dashed part of the orbit path shows where the satellite is in the earth's shadow,  

DLR